Regional Weather Roundup
Issued by NWS

Home | Current Version | Previous Version | Text Only | Print | Product List | Glossary On
Versions: 1 2 3 4 5 6 7 8 9 10 11 12 13 14 15 16 17 18 19 20 21 22 23 24 25 26 27 28 29 30 31 32 33 34 35 36 37 38 39 40 41 42 43 44 45 46 47 48 49 50
000
ASUS44 KFWD 280615
RWRTX
NORTH TEXAS HOURLY WEATHER ROUNDUP
NATIONAL WEATHER SERVICE FORT WORTH TX
100 AM CDT THU AUG 28 2014

NOTE: "FAIR" INDICATES FEW OR NO CLOUDS BELOW 12,000 FEET WITH NO
SIGNIFICANT WEATHER AND/OR OBSTRUCTIONS TO VISIBILITY.

TXZ118-119-280700-
DALLAS/FORT WORTH METROPLEX

CITY           SKY/WX    TMP DP  RH WIND       PRES   REMARKS
DFW AIRPORT    FAIR      80  60  50 SE6       29.99S
6HR MIN TEMP:  80; 6HR MAX TEMP:  92;

DALLAS LOVE    FAIR      82  60  47 E5        29.99S
6HR MIN TEMP:  82; 6HR MAX TEMP:  92;

FTW MEACHAM    FAIR      81  59  47 SE5       29.99S
6HR MIN TEMP:  81; 6HR MAX TEMP:  93;

DAL-EXECUTIVE  FAIR      78  58  49 CALM      29.99S
6HR MIN TEMP:  76; 6HR MAX TEMP:  93;

FTW-ALLIANCE   FAIR      73  62  68 SE3       29.99S
6HR MIN TEMP:  73; 6HR MAX TEMP:  92;

FTW-NAS-JRB    FAIR      84  56  38 SE3       30.03S
6HR MIN TEMP:  84; 6HR MAX TEMP:  95;

FTW-SPINKS     FAIR      75  60  60 CALM      30.02S
6HR MIN TEMP:  73; 6HR MAX TEMP:  91;

ARLINGTON      FAIR      73  62  68 CALM      30.00S
6HR MIN TEMP:  72; 6HR MAX TEMP:  92;

GRAND PRAIRIE  FAIR      80  55  42 CALM      30.01S
6HR MIN TEMP:  80; 6HR MAX TEMP:  92;

ADDISON        FAIR      82  61  49 E3        30.01F
6HR MIN TEMP:  82; 6HR MAX TEMP:  92;

MESQUITE       FAIR      74  60  60 CALM      29.99F
6HR MIN TEMP:  73; 6HR MAX TEMP:  91;

LANCASTER      FAIR      70  56  61 CALM      30.00S
6HR MIN TEMP:  70; 6HR MAX TEMP:  92;

$$

TXZ091>094-102>105-117-120-121-131>134-280700-
NORTH CENTRAL TEXAS

CITY           SKY/WX    TMP DP  RH WIND       PRES   REMARKS
SHRMAN/DENISON FAIR      79  63  57 SE6       30.02S
6HR MIN TEMP:  79; 6HR MAX TEMP:  91;

GAINESVILLE    FAIR      74  65  71 CALM      30.03S
6HR MIN TEMP:  74; 6HR MAX TEMP:  89;

BOWIE          FAIR      76  65  68 SE3       30.02S
6HR MIN TEMP:  76; 6HR MAX TEMP:  91;

BRIDGEPORT     FAIR      78  61  55 S5        30.02S
6HR MIN TEMP:  77; 6HR MAX TEMP:  93;

DECATUR        FAIR      76  62  60 SE3       30.01F
6HR MIN TEMP:  76; 6HR MAX TEMP:  91;

DENTON         FAIR      77  66  68 SE5       29.99F
6HR MIN TEMP:  75; 6HR MAX TEMP:  92;

MCKINNEY       FAIR      74  65  73 CALM      30.00S
6HR MIN TEMP:  74; 6HR MAX TEMP:  91;

GREENVILLE     FAIR      73  63  68 E3        30.00F
ROCKWALL       FAIR      76  64  66 E3        29.99S
6HR MIN TEMP:  76; 6HR MAX TEMP:  90;

TERRELL        FAIR      76  62  62 CALM      29.99F
6HR MIN TEMP:  74; 6HR MAX TEMP:  92;

WAXAHACHIE     FAIR      73  56  55 CALM      30.01S
6HR MIN TEMP:  73; 6HR MAX TEMP:  90;

CLEBURNE       FAIR      79  61  53 SE6       30.02S
GRANBURY       FAIR      81  60  49 SE3       30.01F
6HR MIN TEMP:  80; 6HR MAX TEMP:  94;

$$

TXZ083>090-098>101-113>116-127>130-139>142-154-155-280700-
WESTERN NORTH TEXAS

CITY           SKY/WX    TMP DP  RH WIND       PRES   REMARKS
WICHITA FALLS  FAIR      81  64  56 SE13      29.99S
6HR MIN TEMP:  81; 6HR MAX TEMP:  94;

WF-KICKAPOO    FAIR      82  64  54 SE8       30.01R
6HR MIN TEMP:  82; 6HR MAX TEMP:  95;

VERNON         FAIR      84  61  44 SE12      30.00S
6HR MIN TEMP:  84; 6HR MAX TEMP: 100;

ABILENE        FAIR      82  61  48 SE12      30.03S
6HR MIN TEMP:  82; 6HR MAX TEMP:  94;

ABILENE-DYESS  FAIR      82  63  51 SE12      30.01F
6HR MIN TEMP:  82; 6HR MAX TEMP:  93;

BRECKENRIDGE   FAIR      83  58  42 SE9       30.01S
6HR MIN TEMP:  83; 6HR MAX TEMP:  96;

GRAHAM         FAIR      81  61  50 SE8       29.99S
6HR MIN TEMP:  81; 6HR MAX TEMP:  94;

MINERAL WELLS  FAIR      78  61  55 SE6       29.99S
6HR MIN TEMP:  77; 6HR MAX TEMP:  93;

STEPHENVILLE   FAIR      80  56  43 SE6       30.05S
6HR MIN TEMP:  80; 6HR MAX TEMP:  92;

COMANCHE         N/A     76  61  59 SE5       30.03S
6HR MIN TEMP:  76; 6HR MAX TEMP:  92;

BROWNWOOD      MOCLDY    79  59  50 SE5       30.02S
COLEMAN        FAIR      78  60  53 SE3       30.03S
6HR MIN TEMP:  78; 6HR MAX TEMP:  91;

BRADY          CLEAR     77  59  53 E5        30.03S
$$

TXZ143>147-156>162-174-175-280700-
CENTRAL TEXAS

CITY           SKY/WX    TMP DP  RH WIND       PRES   REMARKS
WACO           FAIR      76  60  57 CALM      29.99R
6HR MIN TEMP:  75; 6HR MAX TEMP:  93;

WACO-MCGREGOR  FAIR      79  55  44 SE3       30.01R
6HR MIN TEMP:  79; 6HR MAX TEMP:  93;

HILLSBORO      FAIR      78  60  53 E7        30.00S
6HR MIN TEMP:  78; 6HR MAX TEMP:  92;

CORSICANA      FAIR      79  65  62 SE6       30.00S
6HR MIN TEMP:  79; 6HR MAX TEMP:  93;

MEXIA          FAIR      76  66  71 SE5       29.99R
6HR MIN TEMP:  76; 6HR MAX TEMP:  90;

HEARNE           N/A     79  70  74 CALM      29.99R
6HR MIN TEMP:  79; 6HR MAX TEMP:  93;

CAMERON        FAIR      80  70  70 SE3       29.98S
6HR MIN TEMP:  80; 6HR MAX TEMP:  93;

TEMPLE         FAIR      79  59  50 SE3       30.00R
6HR MIN TEMP:  77; 6HR MAX TEMP:  91;

KILLEEN        CLEAR     79  61  53 SE7       30.01R
KILLEEN-SKYLRK FAIR      81  61  50 SE7       30.00S
6HR MIN TEMP:  79; 6HR MAX TEMP:  91;

FORT HOOD      FAIR      81  60  48 E3        30.01R
6HR MIN TEMP:  81; 6HR MAX TEMP:  94;

GATESVILLE     FAIR      75  57  53 CALM      30.03S
HAMILTON       FAIR      77  56  48 SE6       30.03S
6HR MIN TEMP:  77; 6HR MAX TEMP:  93;

LAMPASAS       FAIR      76  59  54 CALM      30.01S
6HR MIN TEMP:  76; 6HR MAX TEMP:  93;

$$

TXZ095>097-106>112-122>126-135>138-148>153-164>167-280700-
EAST TEXAS

CITY           SKY/WX    TMP DP  RH WIND       PRES   REMARKS
PARIS          FAIR      73  63  68 E7        30.01F
6HR MIN TEMP:  73; 6HR MAX TEMP:  88;

SULPHUR SPRNGS FAIR      74  65  75 CALM      30.02F
6HR MIN TEMP:  74; 6HR MAX TEMP:  90;

CLARKSVILLE    FAIR      76  67  71 CALM      30.00F
6HR MIN TEMP:  75; 6HR MAX TEMP:  89;

MOUNT PLEASANT FAIR      74  66  74 NE3       30.01F
6HR MIN TEMP:  74; 6HR MAX TEMP:  89;

GILMER         FAIR      75  66  73 CALM      30.01F
MINEOLA        FAIR      72  66  83 CALM      30.00F
TYLER          FAIR      77  65  66 SE6       30.00S
6HR MIN TEMP:  76; 6HR MAX TEMP:  92;

LONGVIEW       FAIR      76  66  71 CALM      29.99F
6HR MIN TEMP:  74; 6HR MAX TEMP:  91;

MARSHALL       FAIR      76  69  80 CALM      30.02F
6HR MIN TEMP:  75; 6HR MAX TEMP:  94;

ATHENS         FAIR      70  64  83 CALM      29.99S
PALESTINE      FAIR      79  68  68 SE3       30.00S
JACKSONVILLE   FAIR      79  67  66 SE3       30.02F
HENDERSON      MOCLDY    73  69  86 CALM      30.00F
6HR MIN TEMP:  72; 6HR MAX TEMP:  90;

NACOGDOCHES    FAIR      73  68  83 CALM      30.00F
6HR MIN TEMP:  73; 6HR MAX TEMP:  90;

LUFKIN         FAIR      77  72  84 E3        29.99F
6HR MIN TEMP:  77; 6HR MAX TEMP:  91;

$$

SUPPLEMENTAL OBSERVATIONS (CENTRAL)

CITY           SKY/WX    TMP DP  RH WIND       PRES   REMARKS
LAKE TEXOMA      N/A     75  64  69 SE2         N/A
CADDO GRASSLND   N/A     75  64  69 SE2         N/A
PAT MAYSE LAKE   N/A     79  68  69 E6          N/A
PALESTINE        N/A     73  70  88 E2          N/A


USA.gov is the U.S. government's official web portal to all federal, state and local government web resources and services.